Time,TemperatureF,DewpointF,PressureIn,WindDirection,WindDirectionDegrees,WindSpeedMPH,WindSpeedGustMPH,Humidity,HourlyPrecipIn,Conditions,Clouds,dailyrainin,SolarRadiationWatts/m^2,SoftwareType,DateUTC
2013-12-21 00:02:00,24.0,20.0,-100.00,West,265,5.0,9.0,86,0.00,,,0.02,0.000000,,2013-12-21 08:02:00,
2013-12-21 00:12:00,24.0,20.0,-100.00,West,265,5.0,9.0,86,0.00,,,0.02,0.000000,,2013-12-21 08:12:00,
2013-12-21 00:21:00,24.0,20.0,-100.00,West,265,5.0,9.0,86,0.00,,,0.02,0.000000,,2013-12-21 08:21:00,
2013-12-21 00:30:00,25.0,21.0,-100.00,WSW,257,6.0,8.0,86,0.00,,,0.02,0.000000,,2013-12-21 08:30:00,
2013-12-21 00:53:00,25.0,21.0,-100.00,WSW,257,6.0,8.0,86,0.00,,,0.02,0.000000,,2013-12-21 08:53:00,
2013-12-21 01:02:00,25.0,21.0,-100.00,WSW,257,6.0,8.0,86,0.00,,,0.02,0.000000,,2013-12-21 09:02:00,
2013-12-21 01:12:00,25.0,21.0,-100.00,WSW,257,6.0,8.0,86,0.00,,,0.02,0.000000,,2013-12-21 09:12:00,
2013-12-21 01:22:00,25.0,21.0,-100.00,WSW,257,6.0,8.0,86,0.00,,,0.02,0.000000,,2013-12-21 09:22:00,
2013-12-21 01:30:00,26.0,22.0,-100.00,West,259,7.0,9.0,84,0.00,,,0.02,0.000000,,2013-12-21 09:30:00,
2013-12-21 01:54:00,26.0,22.0,-100.00,West,259,7.0,9.0,84,0.00,,,0.02,0.000000,,2013-12-21 09:54:00,
2013-12-21 02:03:00,26.0,22.0,-100.00,West,259,7.0,9.0,84,0.00,,,0.02,0.000000,,2013-12-21 10:03:00,
2013-12-21 02:12:00,26.0,22.0,-100.00,West,259,7.0,9.0,84,0.00,,,0.02,0.000000,,2013-12-21 10:12:00,
2013-12-21 02:23:00,26.0,22.0,-100.00,West,259,7.0,9.0,84,0.00,,,0.02,0.000000,,2013-12-21 10:23:00,
2013-12-21 02:30:00,26.0,23.0,-100.00,West,261,6.0,9.0,87,0.00,,,0.02,0.000000,,2013-12-21 10:30:00,
2013-12-21 02:53:00,26.0,23.0,-100.00,West,261,6.0,9.0,87,0.00,,,0.02,0.000000,,2013-12-21 10:53:00,
2013-12-21 03:02:00,26.0,23.0,-100.00,West,261,6.0,9.0,87,0.00,,,0.02,0.000000,,2013-12-21 11:02:00,
2013-12-21 03:12:00,26.0,23.0,-100.00,West,261,6.0,9.0,87,0.00,,,0.02,0.000000,,2013-12-21 11:12:00,
2013-12-21 03:22:00,26.0,23.0,-100.00,West,261,6.0,9.0,87,0.00,,,0.02,0.000000,,2013-12-21 11:22:00,
2013-12-21 03:30:00,26.0,23.0,-100.00,West,265,5.0,8.0,89,0.00,,,0.02,0.000000,,2013-12-21 11:30:00,
2013-12-21 03:53:00,26.0,23.0,-100.00,West,265,5.0,8.0,89,0.00,,,0.02,0.000000,,2013-12-21 11:53:00,
2013-12-21 04:02:00,26.0,23.0,-100.00,West,265,5.0,8.0,89,0.00,,,0.02,0.000000,,2013-12-21 12:02:00,
2013-12-21 04:12:00,26.0,23.0,-100.00,West,265,5.0,8.0,89,0.00,,,0.02,0.000000,,2013-12-21 12:12:00,
2013-12-21 04:21:00,26.0,23.0,-100.00,West,265,5.0,8.0,89,0.00,,,0.02,0.000000,,2013-12-21 12:21:00,
2013-12-21 04:30:00,24.0,21.0,-100.00,WSW,252,4.0,6.0,89,0.00,,,0.02,0.000000,,2013-12-21 12:30:00,
2013-12-21 04:52:00,24.0,21.0,-100.00,WSW,252,4.0,6.0,89,0.00,,,0.02,0.000000,,2013-12-21 12:52:00,
2013-12-21 05:02:00,24.0,21.0,-100.00,WSW,252,4.0,6.0,89,0.00,,,0.02,0.000000,,2013-12-21 13:02:00,
2013-12-21 05:11:00,24.0,21.0,-100.00,WSW,252,4.0,6.0,89,0.00,,,0.02,0.000000,,2013-12-21 13:11:00,
2013-12-21 05:21:00,24.0,21.0,-100.00,WSW,252,4.0,6.0,89,0.00,,,0.02,0.000000,,2013-12-21 13:21:00,
2013-12-21 05:30:00,27.0,24.0,-100.00,WSW,252,3.0,6.0,89,0.00,,,0.02,0.000000,,2013-12-21 13:30:00,
2013-12-21 05:52:00,27.0,24.0,-100.00,WSW,252,3.0,6.0,89,0.00,,,0.02,0.000000,,2013-12-21 13:52:00,
2013-12-21 06:02:00,27.0,24.0,-100.00,WSW,252,3.0,6.0,89,0.00,,,0.02,0.000000,,2013-12-21 14:02:00,
2013-12-21 06:12:00,27.0,24.0,-100.00,WSW,252,3.0,6.0,89,0.00,,,0.02,0.000000,,2013-12-21 14:12:00,
2013-12-21 06:22:00,27.0,24.0,-100.00,WSW,252,3.0,6.0,89,0.00,,,0.02,0.000000,,2013-12-21 14:22:00,
2013-12-21 06:30:00,22.0,20.0,-100.00,NNW,346,5.0,6.0,91,0.00,,,0.02,0.000000,,2013-12-21 14:30:00,
2013-12-21 06:53:00,22.0,20.0,-100.00,NNW,346,5.0,6.0,91,0.00,,,0.02,0.000000,,2013-12-21 14:53:00,
2013-12-21 07:02:00,22.0,20.0,-100.00,NNW,346,5.0,6.0,91,0.00,,,0.02,0.000000,,2013-12-21 15:02:00,
2013-12-21 07:12:00,22.0,20.0,-100.00,NNW,346,5.0,6.0,91,0.00,,,0.02,0.000000,,2013-12-21 15:12:00,
2013-12-21 07:21:00,22.0,20.0,-100.00,NNW,346,5.0,6.0,91,0.00,,,0.02,0.000000,,2013-12-21 15:21:00,
2013-12-21 07:30:00,19.0,17.0,-100.00,North,-999,0.0,5.0,93,0.00,,,0.02,0.000000,,2013-12-21 15:30:00,
2013-12-21 08:13:00,19.0,17.0,-100.00,North,-999,0.0,5.0,93,0.00,,,0.02,0.000000,,2013-12-21 16:13:00,
2013-12-21 08:22:00,19.0,17.0,-100.00,North,-999,0.0,5.0,93,0.00,,,0.02,0.000000,,2013-12-21 16:22:00,
2013-12-21 08:30:00,19.0,17.0,-100.00,NW,309,2.0,4.0,92,0.00,,,0.02,26.000000,,2013-12-21 16:30:00,
2013-12-21 08:53:00,19.0,17.0,-100.00,NW,309,2.0,4.0,92,0.00,,,0.02,26.000000,,2013-12-21 16:53:00,
2013-12-21 09:03:00,19.0,17.0,-100.00,NW,309,2.0,4.0,92,0.00,,,0.02,26.000000,,2013-12-21 17:03:00,
2013-12-21 09:12:00,19.0,17.0,-100.00,NW,309,2.0,4.0,92,0.00,,,0.02,26.000000,,2013-12-21 17:12:00,
2013-12-21 09:22:00,19.0,17.0,-100.00,NW,309,2.0,4.0,92,0.00,,,0.02,26.000000,,2013-12-21 17:22:00,
2013-12-21 09:30:00,30.0,26.0,-100.00,NNE,31,1.0,4.0,84,0.00,,,0.02,187.000000,,2013-12-21 17:30:00,
2013-12-21 09:53:00,30.0,26.0,-100.00,NNE,31,1.0,4.0,84,0.00,,,0.02,187.000000,,2013-12-21 17:53:00,
2013-12-21 10:02:00,30.0,26.0,-100.00,NNE,31,1.0,4.0,84,0.00,,,0.02,187.000000,,2013-12-21 18:02:00,
2013-12-21 10:12:00,30.0,26.0,-100.00,NNE,31,1.0,4.0,84,0.00,,,0.02,187.000000,,2013-12-21 18:12:00,
2013-12-21 10:22:00,30.0,26.0,-100.00,NNE,31,1.0,4.0,84,0.00,,,0.02,187.000000,,2013-12-21 18:22:00,
2013-12-21 10:30:00,33.0,27.0,-100.00,ESE,109,3.0,5.0,77,0.00,,,0.02,319.000000,,2013-12-21 18:30:00,
2013-12-21 10:52:00,33.0,27.0,-100.00,ESE,109,3.0,5.0,77,0.00,,,0.02,319.000000,,2013-12-21 18:52:00,
2013-12-21 11:02:00,33.0,27.0,-100.00,ESE,109,3.0,5.0,77,0.00,,,0.02,319.000000,,2013-12-21 19:02:00,
2013-12-21 11:11:00,33.0,27.0,-100.00,ESE,109,3.0,5.0,77,0.00,,,0.02,319.000000,,2013-12-21 19:11:00,
2013-12-21 11:21:00,33.0,27.0,-100.00,ESE,109,3.0,5.0,77,0.00,,,0.02,319.000000,,2013-12-21 19:21:00,
2013-12-21 11:30:00,37.0,28.0,-100.00,SSE,156,1.0,4.0,70,0.00,,,0.02,379.000000,,2013-12-21 19:30:00,
2013-12-21 11:52:00,37.0,28.0,-100.00,SSE,156,1.0,4.0,70,0.00,,,0.02,379.000000,,2013-12-21 19:52:00,
2013-12-21 12:02:00,37.0,28.0,-100.00,SSE,156,1.0,4.0,70,0.00,,,0.02,379.000000,,2013-12-21 20:02:00,
2013-12-21 12:12:00,37.0,28.0,-100.00,SSE,156,1.0,4.0,70,0.00,,,0.02,379.000000,,2013-12-21 20:12:00,
2013-12-21 12:23:00,37.0,28.0,-100.00,SSE,156,1.0,4.0,70,0.00,,,0.02,379.000000,,2013-12-21 20:23:00,
2013-12-21 12:30:00,39.0,28.0,-100.00,South,179,3.0,5.0,64,0.00,,,0.02,470.000000,,2013-12-21 20:30:00,
2013-12-21 12:52:00,39.0,28.0,-100.00,South,179,3.0,5.0,64,0.00,,,0.02,470.000000,,2013-12-21 20:52:00,
2013-12-21 13:02:00,39.0,28.0,-100.00,South,179,3.0,5.0,64,0.00,,,0.02,470.000000,,2013-12-21 21:02:00,
2013-12-21 13:11:00,39.0,28.0,-100.00,South,179,3.0,5.0,64,0.00,,,0.02,470.000000,,2013-12-21 21:11:00,
2013-12-21 13:22:00,39.0,28.0,-100.00,South,179,3.0,5.0,64,0.00,,,0.02,470.000000,,2013-12-21 21:22:00,
2013-12-21 13:30:00,38.0,27.0,-100.00,South,181,3.0,6.0,64,0.00,,,0.00,363.000000,,2013-12-21 21:30:00,
2013-12-21 13:53:00,38.0,27.0,-100.00,South,181,3.0,6.0,64,0.00,,,0.00,363.000000,,2013-12-21 21:53:00,
2013-12-21 14:03:00,38.0,27.0,-100.00,South,181,3.0,6.0,64,0.00,,,0.00,363.000000,,2013-12-21 22:03:00,
2013-12-21 14:12:00,38.0,27.0,-100.00,South,181,3.0,6.0,64,0.00,,,0.00,363.000000,,2013-12-21 22:12:00,
2013-12-21 14:23:00,38.0,27.0,-100.00,South,181,3.0,6.0,64,0.00,,,0.00,363.000000,,2013-12-21 22:23:00,
2013-12-21 14:30:00,36.0,27.0,-100.00,South,182,2.0,5.0,69,0.00,,,0.00,161.000000,,2013-12-21 22:30:00,
2013-12-21 14:53:00,36.0,27.0,-100.00,South,182,2.0,5.0,69,0.00,,,0.00,161.000000,,2013-12-21 22:53:00,
2013-12-21 15:02:00,36.0,27.0,-100.00,South,182,2.0,5.0,69,0.00,,,0.00,161.000000,,2013-12-21 23:02:00,
2013-12-21 15:12:00,36.0,27.0,-100.00,South,182,2.0,5.0,69,0.00,,,0.00,161.000000,,2013-12-21 23:12:00,
2013-12-21 15:22:00,36.0,27.0,-100.00,South,182,2.0,5.0,69,0.00,,,0.00,161.000000,,2013-12-21 23:22:00,
2013-12-21 15:30:00,35.0,27.0,-100.00,ESE,120,4.0,4.0,72,0.00,,,0.00,68.000000,,2013-12-21 23:30:00,
2013-12-21 15:53:00,35.0,27.0,-100.00,ESE,120,4.0,4.0,72,0.00,,,0.00,68.000000,,2013-12-21 23:53:00,
2013-12-21 16:02:00,35.0,27.0,-100.00,ESE,120,4.0,4.0,72,0.00,,,0.00,68.000000,,2013-12-22 00:02:00,
2013-12-21 16:11:00,35.0,27.0,-100.00,ESE,120,4.0,4.0,72,0.00,,,0.00,68.000000,,2013-12-22 00:11:00,
2013-12-21 16:21:00,35.0,27.0,-100.00,ESE,120,4.0,4.0,72,0.00,,,0.00,68.000000,,2013-12-22 00:21:00,
2013-12-21 16:30:00,31.0,25.0,-100.00,North,-999,0.0,4.0,79,0.00,,,0.00,31.000000,,2013-12-22 00:30:00,
2013-12-21 16:52:00,31.0,25.0,-100.00,North,-999,0.0,4.0,79,0.00,,,0.00,31.000000,,2013-12-22 00:52:00,
2013-12-21 17:02:00,31.0,25.0,-100.00,North,-999,0.0,4.0,79,0.00,,,0.00,31.000000,,2013-12-22 01:02:00,
2013-12-21 17:12:00,31.0,25.0,-100.00,North,-999,0.0,4.0,79,0.00,,,0.00,31.000000,,2013-12-22 01:12:00,
2013-12-21 17:22:00,31.0,25.0,-100.00,North,-999,0.0,4.0,79,0.00,,,0.00,31.000000,,2013-12-22 01:22:00,
2013-12-21 17:30:00,26.0,23.0,-100.00,North,-999,0.0,4.0,89,0.00,,,0.00,0.000000,,2013-12-22 01:30:00,
2013-12-21 17:52:00,26.0,23.0,-100.00,North,-999,0.0,4.0,89,0.00,,,0.00,0.000000,,2013-12-22 01:52:00,
2013-12-21 18:02:00,26.0,23.0,-100.00,North,-999,0.0,4.0,89,0.00,,,0.00,0.000000,,2013-12-22 02:02:00,
2013-12-21 18:12:00,26.0,23.0,-100.00,North,-999,0.0,4.0,89,0.00,,,0.00,0.000000,,2013-12-22 02:12:00,
2013-12-21 18:22:00,26.0,23.0,-100.00,North,-999,0.0,4.0,89,0.00,,,0.00,0.000000,,2013-12-22 02:22:00,
2013-12-21 18:30:00,23.0,21.0,-100.00,WNW,283,1.0,4.0,92,0.00,,,0.00,0.000000,,2013-12-22 02:30:00,
2013-12-21 18:52:00,23.0,21.0,-100.00,WNW,283,1.0,4.0,92,0.00,,,0.00,0.000000,,2013-12-22 02:52:00,
2013-12-21 19:02:00,23.0,21.0,-100.00,WNW,283,1.0,4.0,92,0.00,,,0.00,0.000000,,2013-12-22 03:02:00,
2013-12-21 19:11:00,23.0,21.0,-100.00,WNW,283,1.0,4.0,92,0.00,,,0.00,0.000000,,2013-12-22 03:11:00,
2013-12-21 19:22:00,23.0,21.0,-100.00,WNW,283,1.0,4.0,92,0.00,,,0.00,0.000000,,2013-12-22 03:22:00,
2013-12-21 19:30:00,24.0,22.0,-100.00,North,-999,0.0,4.0,93,0.00,,,0.00,0.000000,,2013-12-22 03:30:00,
2013-12-21 19:54:00,24.0,22.0,-100.00,North,-999,0.0,4.0,93,0.00,,,0.00,0.000000,,2013-12-22 03:54:00,
2013-12-21 20:02:00,-999.0,-99.9,-100.00,North,-999,0.0,4.0,-999,0.00,,,-99.99,0.000000,,2013-12-22 04:02:00,
2013-12-21 20:13:00,24.0,22.0,-100.00,North,-999,0.0,4.0,93,0.00,,,0.00,0.000000,,2013-12-22 04:13:00,
2013-12-21 20:23:00,24.0,22.0,-100.00,North,-999,0.0,4.0,93,0.00,,,0.00,0.000000,,2013-12-22 04:23:00,
2013-12-21 20:30:00,26.0,25.0,-100.00,North,-999,0.0,4.0,94,0.00,,,0.00,0.000000,,2013-12-22 04:30:00,
2013-12-21 20:53:00,26.0,25.0,-100.00,North,-999,0.0,4.0,94,0.00,,,0.00,0.000000,,2013-12-22 04:53:00,
2013-12-21 21:03:00,26.0,25.0,-100.00,North,-999,0.0,4.0,94,0.00,,,0.00,0.000000,,2013-12-22 05:03:00,
2013-12-21 21:12:00,26.0,25.0,-100.00,North,-999,0.0,4.0,94,0.00,,,0.00,0.000000,,2013-12-22 05:12:00,
2013-12-21 21:22:00,26.0,25.0,-100.00,North,-999,0.0,4.0,94,0.00,,,0.00,0.000000,,2013-12-22 05:22:00,
2013-12-21 21:30:00,24.0,22.0,-100.00,North,-999,0.0,0.0,93,0.00,,,0.00,0.000000,,2013-12-22 05:30:00,
2013-12-21 21:53:00,24.0,22.0,-100.00,North,-999,0.0,0.0,93,0.00,,,0.00,0.000000,,2013-12-22 05:53:00,
2013-12-21 22:02:00,24.0,22.0,-100.00,North,-999,0.0,0.0,93,0.00,,,0.00,0.000000,,2013-12-22 06:02:00,
2013-12-21 22:12:00,24.0,22.0,-100.00,North,-999,0.0,0.0,93,0.00,,,0.00,0.000000,,2013-12-22 06:12:00,
2013-12-21 22:22:00,24.0,22.0,-100.00,North,-999,0.0,0.0,93,0.00,,,0.00,0.000000,,2013-12-22 06:22:00,
2013-12-21 22:30:00,21.0,20.0,-100.00,WNW,295,2.0,5.0,94,0.00,,,0.00,0.000000,,2013-12-22 06:30:00,
2013-12-21 23:11:00,21.0,20.0,-100.00,WNW,295,2.0,5.0,94,0.00,,,0.00,0.000000,,2013-12-22 07:11:00,
2013-12-21 23:22:00,21.0,20.0,-100.00,WNW,295,2.0,5.0,94,0.00,,,0.00,0.000000,,2013-12-22 07:22:00,
2013-12-21 23:30:00,21.0,20.0,-100.00,North,-999,0.0,4.0,94,0.00,,,0.00,0.000000,,2013-12-22 07:30:00,
2013-12-21 23:52:00,21.0,20.0,-100.00,North,-999,0.0,4.0,94,0.00,,,0.00,0.000000,,2013-12-22 07:52:00,